Hourly Weather Roundup
Issued by NWS Central Illinois

Home | Current Version | Previous Version | Text Only | Print | Product List | Glossary On
Versions: 1 2 3 4 5 6 7 8 9 10 11 12 13 14 15 16 17 18 19 20 21 22 23 24 25 26 27 28 29 30 31 32 33 34 35 36 37 38 39 40 41 42 43 44 45 46 47 48 49 50
000
NZUS43 KILX 240210
HWRILX

Area Weather Roundup
National Weather Service Lincoln IL
800 PM CST THU NOV 23 2017

NOTE:  "FAIR" indicates few or no clouds below 12,000 feet, with
       no sigificant weather and/or obstructions to visibility.


CITY           SKY/WX    TMP DP  RH WIND       PRES   REMARKS
Bloomington    CLOUDY    34  26  72 S6        29.95F WCI  29
Champaign      CLEAR     35  27  72 S10       29.97F WCI  27
Danville       CLEAR     35  26  69 S8        29.95F WCI  29
Decatur        CLEAR     35  28  75 S6        29.96F WCI  30
Effingham      CLEAR     37  27  68 SE3       30.01S
Flora          CLEAR     37  27  68 SE3       30.01S
Galesburg      CLOUDY    30  27  89 S5        29.94F WCI  25
Jacksonville   CLEAR     34  27  75 CALM      29.96S
Lacon          CLEAR     32  26  78 CALM      29.93S
Lawrenceville  CLEAR     36  25  64 E6        30.03R WCI  31
Litchfield     CLEAR     37  28  69 S5        29.97S WCI  34
$$


CITY           SKY/WX    TMP DP  RH WIND       PRES   REMARKS
Lincoln        CLEAR     35  30  82 CALM      29.96S
Macomb         CLEAR     33  28  82 CALM      29.96F
Mattoon        CLEAR     38  27  64 S7        29.98S WCI  33
Mt Carmel AP   CLEAR     36  24  63 SE3       30.03R
Olney-Noble AP CLEAR     38  21  49 CALM      30.02S
Paris AP       CLEAR     32  28  84 S5        30.00F WCI  27
Peoria         CLEAR     36  26  67 CALM      29.95S
Pontiac        CLEAR     35  28  77 SW3       29.95S
Rantoul        CLEAR     36  31  82 S6        29.96S WCI  31
Robinson       CLEAR     32  26  78 S3        30.03S
Springfield    CLEAR     36  28  73 CALM      29.97S
Taylorville    CLEAR     35  28  74 S5        29.97S WCI  31
$$

...REGIONAL REPORTS...


CITY           SKY/WX    TMP DP  RH WIND       PRES   REMARKS
Chicago O`Hare CLEAR     38  25  59 SW6       29.92S WCI  33
Kankakee       CLEAR     34  28  79 S5        29.95S WCI  29
Moline         CLEAR     34  25  69 CALM      29.91F
Mount Sterling CLEAR     37  28  71 CALM      29.94F
Mount Vernon   CLEAR     35  26  69 CALM      30.01R
Pittsfield     CLEAR     36  29  76 CALM      29.96F
Quincy         CLEAR     42  30  62 S5        29.94F
Rockford       CLEAR     29  25  85 CALM      29.93R
$$


CITY           SKY/WX    TMP DP  RH WIND       PRES   REMARKS
Burlington     CLEAR     36  29  75 SE3       29.92F
Cedar Rapids   CLEAR     36  27  69 S3        29.88S
Des Moines     PTCLDY    46  32  58 S10       29.85F
Kirksville     CLEAR     41  33  73 CALM      29.93F
Ottumwa        CLEAR     40  29  64 S6        29.90S
St Louis       CLEAR     42  31  64 CALM      29.97S
$$


CITY           SKY/WX    TMP DP  RH WIND       PRES   REMARKS
Terre Haute    CLEAR     30  23  75 CALM      30.02S
Evansville     CLEAR     36  27  69 CALM      30.04R
Indianapolis   CLEAR     36  21  54 SW6       30.02R WCI  31
Lafayette      CLEAR     36  25  64 S6        29.98F WCI  31
Madison        CLEAR     37  25  61 S3        29.87F
Milwaukee      CLEAR     36  24  62 S5        29.89S WCI  32
$$





USA.gov is the U.S. government's official web portal to all federal, state and local government web resources and services.